User: anonymous   Login
Location: Unspecified
(0.0000°N, 0.0000°E)
Time: 02:57:34
(UTC+00:00)
Language:

ESSA 3 - Orbit

View from above orbital plane
View from above orbital plane
View from above satellite
View from above satellite

Ground track
Ground track

The orbit data is extracted from the following two-line orbital elements,

1  2435U 66087A   18171.60072838 -.00000049 +00000-0 -48151-4 0  9991
2  2435 101.0056 227.7418 0064514 123.1482 035.4629 12.56840373372348
Epoch (UTC): 20 June 2018 14:25:02
Eccentricity: 0.0064514
inclination: 101.0056°
perigee height: 1385 km
apogee height: 1486 km
right ascension of ascending node: 227.7418°
argument of perigee: 123.1482°
revolutions per day: 12.56840373
mean anomaly at epoch: 35.4629°
orbit number at epoch: 37234

The dashed part of the orbit path shows where the satellite is in the earth's shadow,  

DLR